Location: Colebrook
(42.0017°N, 73.0973°W)
Time: 22:13:33
(UTC-04:00)

Amateur Radio Satellites - All Passes

Search period start: 20 October 2014 21:43
Search period end: 21 October 2014 21:43
Location: Colebrook, 42.0017°N, 73.0973°W

Satellite Date Start Highest point End Downlink Frequencies (MHz)
Time Altitude Azimuth
ZACube-1 20 Oct 21:49:28 21:53:46 40° 71° (ENE) 21:58:03 437.345 MHz
RS-15 20 Oct 21:52:51 22:01:59 32° 105° (ESE) 22:11:00 29.354 - 29.394 USB, Beacon 29.352 USB
AO-40 20 Oct 21:58:51 23:40:06 23° 223° (SW) 02:47:56 Beacon 2401.320
UKube-1 20 Oct 22:03:38 22:07:52 52° 260° (W) 22:12:09 145.840 MHz, 145.915 MHz
SO-50 20 Oct 22:34:01 22:38:45 52° 52° (NE) 22:43:31 436.795 FM
FUNcube-1 20 Oct 22:35:01 22:39:37 69° 259° (WSW) 22:44:11 145.950 - 145.970 MHz USB
UOSAT-12 20 Oct 22:44:15 22:45:52 12° 32° (NNE) 22:47:28 437.025 FM, 437.400 FM
Oscar 11 20 Oct 22:50:45 22:53:56 20° 267° (W) 22:57:07 145.825 FM, Beacon 2401.500 USB
KITSAT 1 20 Oct 23:20:08 23:27:44 47° 249° (WSW) 23:35:17 435.175 FM
ZACube-1 20 Oct 23:26:50 23:30:17 21° 267° (W) 23:33:44 437.345 MHz
RS-15 21 Oct 00:02:22 00:13:21 73° 307° (NW) 00:24:20 29.354 - 29.394 USB, Beacon 29.352 USB
MaSat-1 21 Oct 00:09:59 00:13:27 24° 109° (ESE) 00:16:42 437.345 MHz
SO-50 21 Oct 00:15:24 00:18:58 21° 249° (WSW) 00:22:33 436.795 FM
UOSAT-12 21 Oct 00:22:23 00:27:04 56° 53° (NE) 00:31:38 437.025 FM, 437.400 FM
Oscar 19 21 Oct 01:42:36 01:46:56 27° 95° (E) 01:51:15 437.125 CW, 437.150 USB
MaSat-1 21 Oct 01:45:22 01:49:08 30° 302° (WNW) 01:52:36 437.345 MHz
AO-27 21 Oct 01:50:43 01:53:10 13° 89° (E) 01:55:38 436.795 MHz FM
UOSAT-12 21 Oct 02:03:38 02:06:45 18° 250° (WSW) 02:09:50 437.025 FM, 437.400 FM
RS-15 21 Oct 02:19:03 02:28:01 28° 335° (NNW) 02:37:05 29.354 - 29.394 USB, Beacon 29.352 USB
JAS-1B 21 Oct 02:26:32 02:32:53 58° 102° (ESE) 02:40:26 435.800 - 435.900 CW/SSB
Oscar 16 21 Oct 02:27:03 02:32:12 74° 103° (ESE) 02:37:18 437.025 USB, Beacon 2401.1428
Gurwin Techsat 1B 21 Oct 02:38:33 02:42:27 20° 92° (E) 02:46:19 435.225 FM
Uribyol 2 21 Oct 02:38:51 02:43:45 40° 98° (E) 02:48:37 436.500 FM
ITAMSAT 1 21 Oct 02:43:42 02:48:40 42° 99° (E) 02:53:35 435.822 SSB
TMSAT-1 21 Oct 02:52:41 02:56:34 20° 92° (E) 03:00:25 436.925 FM
AO-Echo 21 Oct 02:57:06 03:02:25 75° 103° (ESE) 03:07:43 ?
Oscar 19 21 Oct 03:21:40 03:26:19 36° 292° (WNW) 03:30:58 437.125 CW, 437.150 USB
AO-27 21 Oct 03:28:00 03:33:15 76° 286° (WNW) 03:38:27 436.795 MHz FM
OPAL 21 Oct 03:34:45 03:37:23 14° 57° (ENE) 03:40:00 ?
AO-7 21 Oct 03:40:59 03:46:03 17° 90° (E) 03:51:06 29.400 - 29.500 MHz
Sapphire 21 Oct 04:03:01 04:07:10 23° 107° (ESE) 04:11:20 437.095 MHz 1200 baud AX-25 AFSK
Oscar 16 21 Oct 04:08:06 04:10:55 15° 300° (WNW) 04:13:44 437.025 USB, Beacon 2401.1428
Gurwin Techsat 1B 21 Oct 04:17:33 04:22:42 52° 289° (WNW) 04:27:50 435.225 FM
JAS-1B 21 Oct 04:18:11 04:23:16 26° 296° (WNW) 04:29:00 435.800 - 435.900 CW/SSB
Uribyol 2 21 Oct 04:18:44 04:23:01 26° 295° (WNW) 04:27:17 436.500 FM
ITAMSAT 1 21 Oct 04:23:40 04:27:55 26° 295° (WNW) 04:32:08 435.822 SSB
PCSat 21 Oct 04:25:03 04:30:01 39° 111° (ESE) 04:35:01 145.825 MHz
TMSAT-1 21 Oct 04:31:37 04:36:46 52° 289° (WNW) 04:41:53 436.925 FM
RS-15 21 Oct 04:37:17 04:45:28 23° 11° (NNE) 04:53:48 29.354 - 29.394 USB, Beacon 29.352 USB
AO-Echo 21 Oct 04:37:28 04:40:32 16° 299° (WNW) 04:43:37 ?
Uosat F 21 Oct 04:38:44 04:43:06 29° 96° (E) 04:47:26 435.120 FM
OPAL 21 Oct 05:10:25 05:15:36 83° 254° (WSW) 05:20:45 ?
AO-27 21 Oct 05:10:46 05:11:50 11° 304° (NW) 05:12:55 436.795 MHz FM
STRAND 1 21 Oct 05:13:21 05:14:53 11° 57° (ENE) 05:16:24 ?
JAS-2 21 Oct 05:19:56 05:26:20 28° 92° (E) 05:32:48 435.800 - 435.900 CW/SSB, 435.910 FM
Hamsat 21 Oct 05:27:43 05:28:02 10° 89° (E) 05:28:20 145.90 MHz
AO-7 21 Oct 05:31:32 05:39:55 86° 108° (ESE) 05:48:16 29.400 - 29.500 MHz
Sapphire 21 Oct 05:44:57 05:50:12 52° 305° (NW) 05:55:31 437.095 MHz 1200 baud AX-25 AFSK
PCSat 21 Oct 06:08:36 06:13:28 33° 310° (NW) 06:18:22 145.825 MHz
Uosat F 21 Oct 06:17:21 06:21:53 34° 292° (WNW) 06:26:24 435.120 FM
STRAND 1 21 Oct 06:48:06 06:53:13 82° 75° (ENE) 06:58:24 ?
RS-15 21 Oct 06:50:53 07:01:32 48° 43° (NE) 07:12:33 29.354 - 29.394 USB, Beacon 29.352 USB
Hamsat 21 Oct 07:00:15 07:04:25 67° 285° (WNW) 07:08:35 145.90 MHz
JAS-2 21 Oct 07:04:09 07:11:43 66° 289° (WNW) 07:19:27 435.800 - 435.900 CW/SSB, 435.910 FM
AO-7 21 Oct 07:25:37 07:31:44 24° 308° (NW) 07:37:51 29.400 - 29.500 MHz
Sapphire 21 Oct 07:33:21 07:34:57 11° 326° (NW) 07:36:33 437.095 MHz 1200 baud AX-25 AFSK
SO-67 21 Oct 07:58:13 08:01:41 78° 102° (ESE) 08:05:07 435.3500 MHz FM
Saudisat 1A 21 Oct 08:04:54 08:08:34 27° 114° (ESE) 08:12:16 436.775 MHz
STRAND 1 21 Oct 08:31:16 08:33:02 12° 271° (W) 08:34:48 ?
HO-68 21 Oct 08:49:14 08:54:53 24° 93° (E) 09:00:29 435.675 MHz FM
JAS-2 21 Oct 08:51:34 08:55:24 15° 307° (NW) 08:59:19 435.800 - 435.900 CW/SSB, 435.910 FM
RS-15 21 Oct 09:03:24 09:14:13 58° 247° (WSW) 09:25:30 29.354 - 29.394 USB, Beacon 29.352 USB
Saudisat 1A 21 Oct 09:43:58 09:48:00 35° 311° (NW) 09:52:04 436.775 MHz
UKube-1 21 Oct 09:51:48 09:55:24 25° 95° (E) 09:59:00 145.840 MHz, 145.915 MHz
MaSat-1 21 Oct 09:56:06 09:58:39 33° 59° (ENE) 10:00:58 437.345 MHz
FUNcube-1 21 Oct 10:24:42 10:28:01 22° 93° (E) 10:31:16 145.950 - 145.970 MHz USB
HO-68 21 Oct 10:35:58 10:43:05 65° 291° (WNW) 10:50:09 435.675 MHz FM
Oscar 11 21 Oct 10:36:30 10:40:49 72° 102° (ESE) 10:45:06 145.825 FM, Beacon 2401.500 USB
PANSAT 21 Oct 11:10:30 11:11:27 11° 180° (S) 11:12:24 not established
ZACube-1 21 Oct 11:14:29 11:18:49 80° 102° (ESE) 11:23:01 437.345 MHz
RS-15 21 Oct 11:23:37 11:24:03 10° 267° (W) 11:24:29 29.354 - 29.394 USB, Beacon 29.352 USB
UKube-1 21 Oct 11:27:45 11:31:35 30° 292° (WNW) 11:35:24 145.840 MHz, 145.915 MHz
KITSAT 1 21 Oct 11:54:49 12:01:09 26° 105° (ESE) 12:07:29 435.175 FM
FUNcube-1 21 Oct 12:00:37 12:04:28 32° 290° (WNW) 12:08:13 145.950 - 145.970 MHz USB
Oscar 16 21 Oct 12:07:58 12:10:50 15° 60° (ENE) 12:13:42 437.025 USB, Beacon 2401.1428
Oscar 11 21 Oct 12:15:00 12:16:23 11° 299° (WNW) 12:17:47 145.825 FM, Beacon 2401.500 USB
HO-68 21 Oct 12:26:14 12:29:26 14° 311° (NW) 12:32:38 435.675 MHz FM
AO-Echo 21 Oct 12:35:20 12:37:22 13° 58° (ENE) 12:39:26 ?
Sapphire 21 Oct 12:49:38 12:53:59 24° 46° (NE) 12:58:19 437.095 MHz 1200 baud AX-25 AFSK
SO-50 21 Oct 12:51:39 12:53:59 14° 108° (ESE) 12:56:20 436.795 FM
ZACube-1 21 Oct 12:53:57 12:54:32 10° 300° (WNW) 12:55:06 437.345 MHz
Oscar 19 21 Oct 12:59:43 13:04:32 42° 69° (ENE) 13:09:22 437.125 CW, 437.150 USB
AO-27 21 Oct 13:08:40 13:12:39 23° 63° (ENE) 13:16:40 436.795 MHz FM
PCSat 21 Oct 13:12:19 13:17:19 36° 51° (NE) 13:22:16 145.825 MHz
JAS-1B 21 Oct 13:13:47 13:19:35 47° 70° (ENE) 13:25:00 435.800 - 435.900 CW/SSB
Oscar 16 21 Oct 13:44:24 13:49:34 75° 257° (WSW) 13:54:45 437.025 USB, Beacon 2401.1428
KITSAT 1 21 Oct 13:47:46 13:55:49 71° 304° (NW) 14:03:56 435.175 FM
Uribyol 2 21 Oct 13:56:58 14:02:07 64° 73° (ENE) 14:07:18 436.500 FM
Gurwin Techsat 1B 21 Oct 13:59:49 14:04:32 34° 67° (ENE) 14:09:16 435.225 FM
ITAMSAT 1 21 Oct 14:02:00 14:07:08 66° 73° (ENE) 14:12:20 435.822 SSB
ISS 21 Oct 14:02:25 14:05:34 41° 139° (SE) 14:08:44 145.800 FM
AO-Echo 21 Oct 14:10:32 14:15:22 84° 257° (WSW) 14:20:24 ?
TMSAT-1 21 Oct 14:13:36 14:18:18 33° 67° (ENE) 14:23:00 436.925 FM
SO-50 21 Oct 14:29:28 14:33:56 66° 306° (NW) 14:38:34 436.795 FM
Sapphire 21 Oct 14:32:28 14:37:49 60° 245° (WSW) 14:43:07 437.095 MHz 1200 baud AX-25 AFSK
UOSAT-12 21 Oct 14:35:53 14:38:31 15° 108° (ESE) 14:41:10 437.025 FM, 437.400 FM
Oscar 19 21 Oct 14:39:53 14:44:01 24° 266° (W) 14:48:09 437.125 CW, 437.150 USB
AO-7 21 Oct 14:40:17 14:46:57 28° 55° (NE) 14:53:37 29.400 - 29.500 MHz
AO-27 21 Oct 14:46:50 14:51:50 48° 260° (W) 14:56:54 436.795 MHz FM
PCSat 21 Oct 14:55:48 15:00:41 35° 250° (WSW) 15:05:32 145.825 MHz
JAS-1B 21 Oct 15:05:48 15:10:31 23° 265° (W) 15:15:00 435.800 - 435.900 CW/SSB
JAS-2 21 Oct 15:37:48 15:38:56 11° 49° (NE) 15:40:06 435.800 - 435.900 CW/SSB, 435.910 FM
Uribyol 2 21 Oct 15:38:52 15:42:01 16° 269° (W) 15:45:12 436.500 FM
ISS 21 Oct 15:39:18 15:42:20 31° 336° (NNW) 15:45:22 145.800 FM
Gurwin Techsat 1B 21 Oct 15:39:46 15:44:28 32° 264° (W) 15:49:11 435.225 FM
Oscar 10/S400 21 Oct 15:43:00 16:00:40 50° 161° (SSE) 16:41:47 145.825 - 145.975 CW/USB, Beacon 145.810 USB
ITAMSAT 1 21 Oct 15:44:07 15:47:06 15° 270° (W) 15:50:06 435.822 SSB
KITSAT 1 21 Oct 15:46:49 15:52:46 22° 328° (NNW) 15:58:45 435.175 FM
Uosat F 21 Oct 15:52:16 15:56:57 42° 69° (ENE) 16:01:41 435.120 FM
TMSAT-1 21 Oct 15:53:28 15:58:10 32° 264° (W) 16:02:54 436.925 FM
UOSAT-12 21 Oct 16:13:30 16:18:06 65° 306° (NW) 16:22:49 437.025 FM, 437.400 FM
SO-50 21 Oct 16:13:30 16:15:26 12° 326° (NNW) 16:17:24 436.795 FM
Saudisat 1A 21 Oct 16:30:41 16:34:29 27° 46° (NE) 16:38:16 436.775 MHz
AO-7 21 Oct 16:30:48 16:39:02 72° 254° (WSW) 16:47:20 29.400 - 29.500 MHz
JAS-2 21 Oct 17:16:46 17:22:26 61° 71° (ENE) 17:28:53 435.800 - 435.900 CW/SSB, 435.910 FM
ISS 21 Oct 17:17:39 17:19:48 16° 356° (N) 17:21:57 145.800 FM
OPAL 21 Oct 17:20:42 17:24:41 24° 96° (E) 17:28:38 ?
Uosat F 21 Oct 17:31:56 17:35:53 23° 266° (W) 17:39:52 435.120 FM
KITSAT 1 21 Oct 17:49:23 17:52:00 12° 358° (N) 17:54:37 435.175 FM
Hamsat 21 Oct 17:53:33 17:57:47 89° 75° (ENE) 18:02:00 145.90 MHz
UOSAT-12 21 Oct 17:57:06 17:59:11 13° 326° (NW) 18:01:17 437.025 FM, 437.400 FM
Saudisat 1A 21 Oct 18:10:03 18:14:08 37° 244° (WSW) 18:18:11 436.775 MHz
AO-7 21 Oct 18:29:54 18:33:12 13° 273° (W) 18:36:31 29.400 - 29.500 MHz
SO-67 21 Oct 18:31:30 18:34:22 25° 71° (ENE) 18:37:16 435.3500 MHz FM
ISS 21 Oct 18:54:44 18:57:24 22° 17° (NNE) 19:00:05 145.800 FM
STRAND 1 21 Oct 18:58:53 19:03:14 27° 95° (E) 19:07:32 ?
OPAL 21 Oct 18:59:04 19:03:42 40° 293° (WNW) 19:08:18 ?
JAS-2 21 Oct 19:03:57 19:08:09 20° 272° (W) 19:12:44 435.800 - 435.900 CW/SSB, 435.910 FM
HO-68 21 Oct 19:19:29 19:24:29 21° 55° (NE) 19:29:30 435.675 MHz FM
KITSAT 1 21 Oct 19:45:50 19:51:24 20° 29° (NNE) 19:56:57 435.175 FM
SO-67 21 Oct 20:04:59 20:07:21 17° 267° (W) 20:09:44 435.3500 MHz FM
ISS 21 Oct 20:31:07 20:34:28 89° 216° (SW) 20:37:48 145.800 FM
STRAND 1 21 Oct 20:37:44 20:42:28 38° 292° (WNW) 20:47:11 ?
UKube-1 21 Oct 20:47:51 20:51:19 24° 66° (ENE) 20:54:48 145.840 MHz, 145.915 MHz
HO-68 21 Oct 21:04:11 21:11:21 83° 254° (WSW) 21:18:35 435.675 MHz FM
RS-15 21 Oct 21:18:40 21:26:28 23° 101° (E) 21:34:09 29.354 - 29.394 USB, Beacon 29.352 USB
SO-50 21 Oct 21:20:50 21:24:25 20° 41° (NE) 21:28:01 436.795 FM
FUNcube-1 21 Oct 21:21:26 21:24:52 21° 66° (ENE) 21:28:17 145.950 - 145.970 MHz USB
Oscar 11 21 Oct 21:31:40 21:35:55 59° 74° (ENE) 21:40:11 145.825 FM, Beacon 2401.500 USB
